When you browse on this site, cookies collect data to enhance your experience and personalize the content and advertising you see.
Visit our Privacy Policy to learn more. By continuing to use the site, you agree to this use of cookies and data.
EN

Hourly Weather Vitrivka

Today, 13 August, Thursday

Time Temperature Precipitation Wind Pressure Humidity
00:00 +22°C° 0 mm 4 mps 754 mmHg 68%
01:00 +21°C° 0 mm 4 mps 754 mmHg 69%
02:00 +21°C° 0 mm 3 mps 754 mmHg 69%
03:00 +20°C° 0 mm 4 mps 754 mmHg 69%
04:00 +19°C° 0 mm 4 mps 754 mmHg 69%
05:00 +19°C° 0 mm 4 mps 755 mmHg 69%
06:00 +20°C° 0 mm 4 mps 755 mmHg 62%
07:00 +22°C° 0 mm 5 mps 755 mmHg 55%
08:00 +23°C° 0 mm 5 mps 755 mmHg 49%
09:00 +25°C° 0 mm 5 mps 755 mmHg 43%
10:00 +26°C° 0 mm 5 mps 756 mmHg 38%
11:00 +27°C° 0 mm 5 mps 756 mmHg 33%
12:00 +28°C° 0 mm 5 mps 756 mmHg 31%
13:00 +28°C° 0 mm 5 mps 755 mmHg 30%
14:00 +29°C° 0 mm 5 mps 755 mmHg 29%
15:00 +28°C° 0 mm 5 mps 755 mmHg 29%
16:00 +28°C° 0 mm 5 mps 755 mmHg 29%
17:00 +27°C° 0 mm 5 mps 755 mmHg 29%
18:00 +26°C° 0 mm 4 mps 755 mmHg 35%
19:00 +24°C° 0 mm 3 mps 755 mmHg 40%
20:00 +21°C° 0 mm 3 mps 755 mmHg 45%
21:00 +20°C° 0 mm 2 mps 755 mmHg 47%
22:00 +21°C° 0 mm 1 mps 755 mmHg 50%
23:00 +20°C° 0 mm 1 mps 756 mmHg 52%

Tomorrow, 14 August, Friday

Time Temperature Precipitation Wind Pressure Humidity
00:00 +20°C° 0 mm 1 mps 755 mmHg 53%
01:00 +19°C° 0 mm 1 mps 755 mmHg 54%
02:00 +19°C° 0 mm 1 mps 755 mmHg 55%
03:00 +19°C° 0 mm 1 mps 755 mmHg 57%
04:00 +18°C° 0 mm 1 mps 755 mmHg 59%
05:00 +18°C° 0 mm 1 mps 755 mmHg 61%
06:00 +20°C° 0 mm 1 mps 755 mmHg 54%
07:00 +21°C° 0 mm 2 mps 755 mmHg 47%
08:00 +25°C° 0 mm 2 mps 755 mmHg 41%
09:00 +26°C° 0 mm 3 mps 755 mmHg 37%
10:00 +27°C° 0 mm 4 mps 756 mmHg 34%
11:00 +28°C° 0 mm 5 mps 756 mmHg 31%
12:00 +28°C° 0 mm 5 mps 755 mmHg 30%
13:00 +28°C° 0 mm 5 mps 755 mmHg 29%
14:00 +29°C° 0 mm 5 mps 755 mmHg 28%
15:00 +28°C° 0 mm 5 mps 755 mmHg 28%
16:00 +28°C° 0 mm 5 mps 755 mmHg 29%
17:00 +28°C° 0 mm 5 mps 755 mmHg 30%
18:00 +26°C° 0 mm 4 mps 755 mmHg 36%
19:00 +23°C° 0 mm 4 mps 755 mmHg 43%
20:00 +21°C° 0 mm 3 mps 755 mmHg 50%
21:00 +20°C° 0 mm 3 mps 755 mmHg 52%
22:00 +20°C° 0 mm 2 mps 755 mmHg 55%
23:00 +19°C° 0 mm 2 mps 756 mmHg 57%

Day after tomorrow, 15 August, Saturday

Time Temperature Precipitation Wind Pressure Humidity
00:00 +19°C° 0 mm 2 mps 756 mmHg 59%
01:00 +18°C° 0 mm 2 mps 755 mmHg 60%
02:00 +18°C° 0 mm 2 mps 755 mmHg 62%
03:00 +17°C° 0 mm 2 mps 755 mmHg 63%
04:00 +17°C° 0 mm 2 mps 755 mmHg 64%
05:00 +17°C° 0 mm 2 mps 755 mmHg 66%
06:00 +19°C° 0 mm 2 mps 756 mmHg 58%
07:00 +21°C° 0 mm 3 mps 756 mmHg 50%
08:00 +24°C° 0 mm 3 mps 756 mmHg 42%
09:00 +25°C° 0 mm 3 mps 756 mmHg 38%
10:00 +26°C° 0 mm 3 mps 756 mmHg 35%
11:00 +28°C° 0 mm 3 mps 756 mmHg 31%
12:00 +28°C° 0 mm 4 mps 756 mmHg 30%
13:00 +28°C° 0 mm 4 mps 756 mmHg 29%
14:00 +29°C° 0 mm 4 mps 756 mmHg 28%
15:00 +28°C° 0 mm 4 mps 756 mmHg 28%
16:00 +28°C° 0 mm 5 mps 756 mmHg 28%
17:00 +27°C° 0 mm 5 mps 755 mmHg 29%
18:00 +25°C° 0 mm 4 mps 755 mmHg 33%
19:00 +22°C° 0 mm 4 mps 755 mmHg 38%
20:00 +20°C° 0 mm 4 mps 756 mmHg 42%
21:00 +20°C° 0 mm 3 mps 756 mmHg 45%
22:00 +19°C° 0 mm 3 mps 756 mmHg 47%
23:00 +18°C° 0 mm 2 mps 756 mmHg 50%

16 August, Sunday

Time Temperature Precipitation Wind Pressure Humidity
00:00 +18°C° 0 mm 2 mps 755 mmHg 52%
01:00 +17°C° 0 mm 2 mps 755 mmHg 54%
02:00 +17°C° 0 mm 2 mps 755 mmHg 56%
03:00 +17°C° 0 mm 2 mps 755 mmHg 57%
04:00 +16°C° 0 mm 2 mps 755 mmHg 59%
05:00 +16°C° 0 mm 2 mps 755 mmHg 60%
06:00 +19°C° 0 mm 3 mps 755 mmHg 52%
07:00 +21°C° 0 mm 4 mps 756 mmHg 44%
08:00 +23°C° 0 mm 5 mps 756 mmHg 36%
09:00 +25°C° 0 mm 5 mps 756 mmHg 34%
10:00 +26°C° 0 mm 6 mps 756 mmHg 31%
11:00 +27°C° 0 mm 6 mps 757 mmHg 29%
12:00 +27°C° 0 mm 6 mps 757 mmHg 31%
13:00 +27°C° 0 mm 6 mps 756 mmHg 34%
14:00 +27°C° 0 mm 7 mps 756 mmHg 36%
15:00 +27°C° 0 mm 6 mps 756 mmHg 34%
16:00 +27°C° 0 mm 6 mps 756 mmHg 31%
17:00 +26°C° 0 mm 6 mps 756 mmHg 29%
18:00 +23°C° 0 mm 5 mps 756 mmHg 34%
19:00 +21°C° 0 mm 4 mps 756 mmHg 39%
20:00 +19°C° 0 mm 3 mps 756 mmHg 43%
21:00 +19°C° 0 mm 3 mps 757 mmHg 47%
22:00 +18°C° 0 mm 2 mps 757 mmHg 51%
23:00 +18°C° 0 mm 2 mps 757 mmHg 54%

17 August, Monday

Time Temperature Precipitation Wind Pressure Humidity
00:00 +17°C° 0 mm 2 mps 757 mmHg 55%
01:00 +17°C° 0 mm 2 mps 757 mmHg 57%
02:00 +17°C° 0 mm 2 mps 757 mmHg 58%
03:00 +17°C° 0 mm 3 mps 757 mmHg 59%
04:00 +17°C° 0 mm 3 mps 757 mmHg 60%
05:00 +17°C° 0 mm 3 mps 757 mmHg 62%
06:00 +19°C° 0 mm 4 mps 757 mmHg 54%
07:00 +22°C° 0 mm 4 mps 757 mmHg 47%
08:00 +26°C° 0 mm 5 mps 757 mmHg 40%
09:00 +27°C° 0 mm 5 mps 757 mmHg 36%
10:00 +28°C° 0 mm 5 mps 757 mmHg 32%
11:00 +29°C° 0 mm 6 mps 757 mmHg 28%
12:00 +30°C° 0 mm 6 mps 757 mmHg 27%
13:00 +30°C° 0 mm 6 mps 756 mmHg 26%
14:00 +30°C° 0 mm 6 mps 756 mmHg 24%
15:00 +30°C° 0 mm 5 mps 756 mmHg 25%
16:00 +29°C° 0 mm 5 mps 755 mmHg 25%
17:00 +29°C° 0 mm 5 mps 755 mmHg 26%
18:00 +27°C° 0 mm 4 mps 755 mmHg 31%
19:00 +24°C° 0 mm 3 mps 755 mmHg 37%
20:00 +21°C° 0 mm 2 mps 755 mmHg 43%
21:00 +20°C° 0 mm 2 mps 755 mmHg 45%
22:00 +20°C° 0 mm 2 mps 755 mmHg 48%
23:00 +20°C° 0 mm 1 mps 755 mmHg 51%

18 August, Tuesday

Time Temperature Precipitation Wind Pressure Humidity
00:00 +20°C° 0 mm 1 mps 754 mmHg 54%
01:00 +19°C° 0 mm 2 mps 754 mmHg 56%
02:00 +18°C° 0 mm 2 mps 754 mmHg 59%
03:00 +18°C° 0 mm 2 mps 754 mmHg 60%
04:00 +18°C° 0 mm 2 mps 753 mmHg 62%
05:00 +17°C° 0 mm 2 mps 753 mmHg 63%
06:00 +20°C° 0 mm 2 mps 753 mmHg 55%
07:00 +24°C° 0 mm 2 mps 753 mmHg 46%
08:00 +27°C° 0 mm 2 mps 753 mmHg 37%
09:00 +28°C° 0 mm 2 mps 753 mmHg 34%
10:00 +29°C° 0 mm 3 mps 753 mmHg 30%
11:00 +31°C° 0 mm 3 mps 753 mmHg 27%
12:00 +31°C° 0 mm 3 mps 753 mmHg 27%
13:00 +32°C° 0 mm 4 mps 753 mmHg 27%
14:00 +33°C° 0 mm 4 mps 752 mmHg 27%
15:00 +32°C° 0 mm 4 mps 752 mmHg 28%
16:00 +32°C° 0 mm 5 mps 752 mmHg 29%
17:00 +30°C° 0 mm 5 mps 752 mmHg 31%
18:00 +28°C° 0 mm 4 mps 752 mmHg 37%
19:00 +26°C° 0 mm 3 mps 752 mmHg 43%
20:00 +24°C° 0 mm 3 mps 752 mmHg 49%
21:00 +23°C° 0 mm 2 mps 752 mmHg 53%
22:00 +23°C° 0 mm 2 mps 751 mmHg 56%
23:00 +22°C° 0 mm 1 mps 751 mmHg 59%
Show more